Regional Weather Roundup
Issued by NWS

Home | Current Version | Previous Version | Graphics & Text | Print | Product List | Glossary On
Versions: 1 2 3 4 5 6 7 8 9 10 11 12 13 14 15 16 17 18 19 20 21 22 23 24 25 26 27 28 29 30 31 32 33 34 35 36 37 38 39 40 41 42 43 44 45 46 47 48 49 50
000
ASUS43 KFSD 210010
RWRSD

WEATHER ROUNDUP FOR SOUTH DAKOTA
NATIONAL WEATHER SERVICE SIOUX FALLS SD
700 PM CDT WED AUG 20 2014

NOTE: "FAIR" INDICATES FEW OR NO CLOUDS BELOW 12,000 FEET WITH NO
SIGNIFICANT WEATHER AND/OR OBSTRUCTIONS TO VISIBILITY.


SDZ001>005-009-010-012>017-210100-
NORTHWEST AND NORTH CENTRAL SOUTH DAKOTA

CITY           SKY/WX    TMP DP  RH WIND       PRES   REMARKS
BUFFALO          N/A     77  57  50 N18       29.72R
FAITH            N/A     83  58  42 SW17G30   29.68R
MOBRIDGE       CLOUDY    80  69  69 SE17G24   29.65F
$$

SDZ012>016-024>037-041>051-057-063-072>074-210100-
SOUTHWEST AND SOUTH CENTRAL SOUTH DAKOTA

CITY           SKY/WX    TMP DP  RH WIND       PRES   REMARKS
RAPID CTY ARPT MOSUNNY   83  53  35 N15G25    29.74S
PIERRE         SUNNY     88  69  53 SE13      29.63S
CUSTER         SUNNY     79  44  28 NW9G17    29.91S
PHILIP         MOSUNNY   93  55  27 W12       29.64F
PINE RIDGE     SUNNY     89  54  30 NW5       29.73F
WINNER         FAIR      89  65  44 SE15      29.68F
$$

SDZ004>011-016>023-039-040-210100-
NORTHEAST SOUTH DAKOTA

CITY           SKY/WX    TMP DP  RH WIND       PRES   REMARKS
ABERDEEN       CLOUDY    78  68  71 SE9       29.72F
WATERTOWN      CLOUDY    76  68  76 SE9       29.77S
SISSETON         N/A     79  68  69 SE10      29.74F
$$

SDZ017-020-022-023-036>040-048>070-210100-
SOUTHEAST SOUTH DAKOTA

CITY           SKY/WX    TMP DP  RH WIND       PRES   REMARKS
SIOUX FALLS    CLOUDY    74  70  87 E10       29.77F
HURON          CLOUDY    80  66  62 SE12G20   29.70F
CHAMBERLAIN    SUNNY     82  72  72 SE13      29.68F
MITCHELL       PTSUNNY   81  71  71 SE13      29.72F
YANKTON        PTSUNNY   79  73  83 SE8       29.72F
$$

ABBREVIATIONS USED IN REMARKS
   TC - TEMPERATURE IN CELSIUS
  WCI - WIND CHILL INDEX
   HX - HEAT INDEX
  VSB - VISIBILITY




USA.gov is the U.S. government's official web portal to all federal, state and local government web resources and services.